Flag for Mexico Weather past 2 weeks in Aguascalientes, Aguascalientes, Mexico

Now
70 °F

Partly cloudy.


Feels Like: 70 °F
Forecast: 56 / 76 °F
Wind: 6 mph from Northeast

Location: Del Bajio / Leon

Current Time: Sep 22, 2014 at 9:55:19 PM

Latest Report: Sep 22, 2014 at 8:52 PM


Visibility: 8 mi

Pressure: 30.24 "Hg

Humidity: 64%

Dew point: 57 °F

Location of AguascalientesLocation

Historic Weather in Aguascalientes — Graph

°F

Aguascalientes temperature yesterday

Maximum temperature yesterday: 75 °F (at 2:54 PM)
Minimum temperature yesterday: 61 °F (at 7:47 AM)
Average temperature yesterday: 68 °F

Past Weeks' High & Low Weather Summary

 TemperatureHumidityPressure
High81 °F (Sep 11, 2:46 PM)100% (Sep 12, 6:45 AM)30.35 "Hg (Sep 12, 6:45 AM)
Low54 °F (Sep 19, 6:46 AM)36% (Sep 16, 10:45 AM)29.69 "Hg (Sep 11, 6:52 PM)
Average68 °F67%30.09 "Hg
* Reported Sep 7 9:49 PM — Sep 22 7:50 PM, Aguascalientes, Weather by CustomWeather, © 2014

Note: Actual official high and low records may vary slightly from our data, if they occured in-between our weather recording intervals... More about our weather records

Advertising

Aguascalientes weather history for previous 24 hours

 ConditionsComfort  
Time TempWeatherWind HumidityBarometerVisibility
7:50 PM
Sep 22
70 °FBroken clouds.7 mph64%30.20 "Hg8 mi
5:42 PM77 °FBroken clouds.10 mph51%30.17 "Hg10 mi
4:48 PM79 °FBroken clouds.7 mph51%30.18 "Hg10 mi
3:47 PM75 °FBroken clouds.3 mph61%29.80 "Hg10 mi
9:48 AM66 °FPartly sunny.No wind83%29.92 "Hg10 mi
7:46 AM61 °FPartly cloudy.No wind100%30.28 "Hg8 mi
6:50 AM61 °FPassing clouds.No wind100%29.87 "Hg6 mi
5:50 AM61 °FMostly cloudy.No wind100%30.26 "Hg6 mi
4:50 AM61 °FOvercast.No wind100%30.26 "Hg4 mi
3:49 AM61 °FMostly cloudy.No wind83%29.86 "Hg4 mi
2:50 AM61 °FMostly cloudy.No wind100%30.28 "Hg6 mi
1:50 AM61 °FMostly cloudy.No wind100%30.30 "Hg5 mi
12:50 AM61 °FLight rain. Mostly cloudy.6 mph100%29.92 "Hg5 mi
11:45 PM
Sep 21
63 °FLight rain. Mostly cloudy.6 mph94%30.30 "Hg6 mi
10:48 PM64 °FLight rain. Mostly cloudy.6 mph83%30.29 "Hg5 mi
9:45 PM66 °FPassing clouds.No wind73%29.88 "Hg8 mi
Weather by CustomWeather, © 2014

See weather overviewHow to use our weather pages